PDT,Max TemperatureF,Mean TemperatureF,Min TemperatureF,Max Dew PointF,MeanDew PointF,Min DewpointF,Max Humidity, Mean Humidity, Min Humidity, Max Sea Level PressureIn, Mean Sea Level PressureIn, Min Sea Level PressureIn, Max VisibilityMiles, Mean VisibilityMiles, Min VisibilityMiles, Max Wind SpeedMPH, Mean Wind SpeedMPH, Max Gust SpeedMPH,PrecipitationIn, CloudCover, Events, WindDirDegrees
2013-8-1,90,76,61,61,51,42,90,56,22,29.94,29.87,29.79,10,8,2,24,8,37,0.47,4,Rain-Thunderstorm,297
2013-8-2,76,69,61,61,59,55,97,75,53,30.04,29.96,29.90,10,8,2,13,3,16,0.04,7,Rain,215
2013-8-3,83,73,62,61,57,52,87,62,36,30.09,30.04,29.97,10,10,10,14,5,17,T,5,,174
2013-8-4,89,73,57,58,55,50,87,58,29,30.04,29.99,29.95,10,10,10,22,6,28,T,1,Rain-Thunderstorm,302
2013-8-5,93,76,58,56,52,46,84,53,21,29.99,29.92,29.84,10,10,10,15,7,20,0.00,2,,344
2013-8-6,96,78,59,53,45,29,72,41,9,29.94,29.86,29.77,10,10,10,16,7,20,0.00,0,,275
2013-8-7,97,78,58,48,43,35,51,32,13,29.90,29.85,29.79,10,10,10,16,8,22,0.00,0,,323
2013-8-8,97,80,62,50,45,38,56,35,14,29.90,29.84,29.78,10,10,10,16,7,23,0.00,0,,309
2013-8-9,98,81,63,53,47,41,45,31,17,29.88,29.81,29.72,10,10,10,15,7,21,0.00,0,,320
2013-8-10,93,79,65,63,55,48,76,50,23,29.99,29.88,29.77,10,9,2,25,5,33,0.60,2,Rain-Thunderstorm,281
2013-8-11,87,75,62,63,57,50,84,57,29,30.02,29.94,29.84,10,9,2,17,4,23,T,2,Rain-Thunderstorm,195
2013-8-12,91,75,58,56,52,45,80,51,21,29.99,29.92,29.85,10,10,10,12,4,16,T,0,,266
2013-8-13,93,76,58,52,48,42,67,43,18,30.02,29.95,29.88,10,10,10,14,7,18,0.00,0,,287
2013-8-14,93,74,55,51,47,42,72,45,18,29.94,29.87,29.78,10,10,10,9,2,12,0.00,0,,232
2013-8-15,88,77,66,58,51,48,66,46,26,29.90,29.85,29.80,10,10,10,18,7,24,T,1,Rain,243
2013-8-16,87,75,62,57,52,46,84,54,24,29.98,29.93,29.87,10,10,10,13,7,29,0.00,0,,290
2013-8-17,87,71,55,51,48,42,77,51,25,29.96,29.91,29.85,10,10,10,15,5,21,0.00,0,,221
2013-8-18,89,72,54,48,44,42,71,45,19,30.04,29.95,29.87,10,10,10,16,8,21,0.00,0,,275
2013-8-19,88,70,52,47,43,38,77,49,20,29.99,29.94,29.89,10,10,10,18,7,24,0.00,0,,327
2013-8-20,85,70,55,43,39,36,51,36,20,30.06,30.00,29.95,10,10,10,18,10,25,0.00,0,,328
2013-8-21,88,72,56,43,40,32,55,35,14,30.11,30.02,29.93,10,10,10,17,8,24,0.00,0,,322
2013-8-22,71,66,60,42,39,37,46,41,35,29.96,29.96,29.94,10,10,10,12,9,,0.00,0,,354
2013-8-23,84,72,59,52,50,48,72,52,31,29.78,29.75,29.72,10,10,10,13,7,17,0.00,1,,344
2013-8-24,84,71,58,53,50,43,80,53,26,29.83,29.78,29.70,10,10,10,13,5,18,T,1,,307
2013-8-25,81,70,58,58,48,43,84,56,28,29.90,29.84,29.77,10,10,6,28,6,33,0.03,1,Rain,278
2013-8-26,77,65,53,56,53,49,93,67,41,29.97,29.90,29.85,10,10,10,18,6,25,T,4,,201
2013-8-27,83,68,52,51,49,46,83,56,28,29.96,29.88,29.79,10,10,10,13,4,18,0.00,1,,260
2013-8-28,88,74,60,54,49,46,64,44,24,29.87,29.83,29.79,10,10,10,18,10,24,0.00,1,,350
2013-8-29,84,71,58,61,56,51,87,62,36,29.98,29.91,29.84,10,9,1,22,7,33,0.18,2,Rain-Thunderstorm,347
2013-8-30,83,68,52,56,49,40,93,58,23,30.09,30.03,29.97,10,10,10,14,6,21,0.00,0,,278
2013-8-31,85,70,54,47,45,43,66,46,25,30.11,30.01,29.90,10,10,10,16,8,22,0.00,0,,324